| time (UTC) | temp C | wind direction | speed KPH | gust KPH | rain 1hr cm | rain 24hr cm | rain mn cm | humidity % | barometer mb |
| 20260906164610 | 32 | 146 | 3.2 | 4.8 | 0.00 | 0.00 | 0.00 | 64 | 1016.2 |
| 20260906164106 | 32 | 162 | 11.3 | 14.5 | 0.00 | 0.00 | 0.00 | 62 | 1016.4 |
| 20260906163601 | 32 | 132 | 3.2 | 4.8 | 0.00 | 0.00 | 0.00 | 65 | 1016.4 |
| 20260906163057 | 31 | 127 | 9.7 | 12.9 | 0.00 | 0.00 | 0.00 | 67 | 1016.4 |
| 20260906162554 | 31 | 152 | 9.7 | 11.3 | 0.00 | 0.00 | 0.00 | 65 | 1016.4 |
| 20260906162049 | 31 | 144 | 4.8 | 6.4 | 0.00 | 0.00 | 0.00 | 67 | 1016.6 |
| 20260906161544 | 31 | 128 | 11.3 | 14.5 | 0.00 | 0.00 | 0.00 | 66 | 1016.2 |
| 20260906161042 | 31 | 115 | 6.4 | 9.7 | 0.00 | 0.00 | 0.00 | 68 | 1016.3 |
| 20260906160541 | 31 | 76 | 8.0 | 11.3 | 0.00 | 0.00 | 0.00 | 69 | 1016.4 |
| 20260906160040 | 31 | 97 | 8.0 | 12.9 | 0.00 | 0.00 | 0.00 | 69 | 1016.2 |
| 20260906155538 | 30 | 143 | 4.8 | 4.8 | 0.00 | 0.00 | 0.00 | 70 | 1016.4 |
| 20260906155034 | 30 | 133 | 6.4 | 6.4 | 0.00 | 0.00 | 0.00 | 69 | 1016.5 |
| 20260906154530 | 30 | 84 | 6.4 | 6.4 | 0.00 | 0.00 | 0.00 | 71 | 1016.4 |
| 20260906154028 | 30 | 128 | 4.8 | 4.8 | 0.00 | 0.00 | 0.00 | 71 | 1016.6 |
| 20260906153527 | 30 | 124 | 6.4 | 6.4 | 0.00 | 0.00 | 0.00 | 71 | 1016.5 |
| 20260906153023 | 30 | 123 | 12.9 | 16.1 | 0.00 | 0.00 | 0.00 | 71 | 1016.5 |
| 20260906152522 | 30 | 115 | 6.4 | 6.4 | 0.00 | 0.00 | 0.00 | 73 | 1016.3 |
| 20260906152022 | 30 | 135 | 6.4 | 9.7 | 0.00 | 0.00 | 0.00 | 72 | 1016.4 |
| 20260906151517 | 30 | 106 | 6.4 | 6.4 | 0.00 | 0.00 | 0.00 | 73 | 1016.6 |
| 20260906151013 | 29 | 123 | 1.6 | 3.2 | 0.00 | 0.00 | 0.00 | 74 | 1016.4 |
| 20260906150508 | 29 | 108 | 6.4 | 9.7 | 0.00 | 0.00 | 0.00 | 75 | 1016.4 |
| 20260906150008 | 29 | 133 | 1.6 | 3.2 | 0.00 | 0.00 | 0.00 | 75 | 1016.4 |
| 20260906145502 | 30 | 69 | 4.8 | 4.8 | 0.00 | 0.00 | 0.00 | 74 | 1016.3 |
| 20260906145001 | 29 | 89 | 6.4 | 6.4 | 0.00 | 0.00 | 0.00 | 74 | 1016.2 |
| 20260906144456 | 28 | 135 | 3.2 | 3.2 | 0.00 | 0.00 | 0.00 | 78 | 1016.6 |
| 20260906143952 | 28 | 117 | 4.8 | 6.4 | 0.00 | 0.00 | 0.00 | 78 | 1016.4 |
| 20260906143447 | 28 | 35 | 6.4 | 6.4 | 0.00 | 0.00 | 0.00 | 79 | 1016.4 |
| 20260906142943 | 27 | 66 | 8.0 | 11.3 | 0.00 | 0.00 | 0.00 | 80 | 1016.2 |
| 20260906142443 | 27 | 131 | 6.4 | 6.4 | 0.00 | 0.00 | 0.00 | 80 | 1016.5 |
| 20260906141938 | 27 | 75 | 3.2 | 6.4 | 0.00 | 0.00 | 0.00 | 81 | 1016.4 |
| 20260906141438 | 27 | 120 | 3.2 | 4.8 | 0.00 | 0.00 | 0.00 | 83 | 1016.5 |
| 20260906140938 | 27 | 121 | 12.9 | 14.5 | 0.00 | 0.00 | 0.00 | 81 | 1016.6 |
| 20260906140432 | 27 | 123 | 6.4 | 11.3 | 0.00 | 0.00 | 0.00 | 82 | 1016.2 |
| 20260906135931 | 27 | 163 | 3.2 | 3.2 | 0.00 | 0.00 | 0.00 | 83 | 1016.1 |
| 20260906135429 | 27 | 125 | 8.0 | 9.7 | 0.00 | 0.00 | 0.00 | 83 | 1016.3 |
| 20260906134926 | 26 | 126 | 6.4 | 9.7 | 0.00 | 0.00 | 0.00 | 84 | 1016.3 |
| 20260906134420 | 27 | 117 | 4.8 | 4.8 | 0.00 | 0.00 | 0.00 | 84 | 1016.4 |
| 20260906133915 | 26 | 56 | 6.4 | 6.4 | 0.00 | 0.00 | 0.00 | 85 | 1016.3 |
| 20260906133411 | 26 | 119 | 1.6 | 3.2 | 0.00 | 0.00 | 0.00 | 86 | 1016.3 |
| 20260906132906 | 26 | 99 | 3.2 | 4.8 | 0.00 | 0.00 | 0.00 | 86 | 1016.5 |
| 20260906132402 | 26 | 134 | 3.2 | 3.2 | 0.00 | 0.00 | 0.00 | 88 | 1016.3 |
| 20260906131857 | 26 | 123 | 3.2 | 3.2 | 0.00 | 0.00 | 0.00 | 88 | 1016.2 |
| 20260906131353 | 26 | 85 | 6.4 | 6.4 | 0.00 | 0.00 | 0.00 | 88 | 1016.1 |
| 20260906130848 | 26 | 126 | 3.2 | 3.2 | 0.00 | 0.00 | 0.00 | 89 | 1016.1 |
| 20260906130348 | 25 | 94 | 1.6 | 3.2 | 0.00 | 0.00 | 0.00 | 89 | 1016.1 |
| 20260906125847 | 25 | 125 | 1.6 | 3.2 | 0.00 | 0.00 | 0.00 | 90 | 1016.2 |
| 20260906125344 | 25 | 132 | 1.6 | 3.2 | 0.00 | 0.00 | 0.00 | 91 | 1015.9 |
| 20260906124839 | 25 | 141 | 1.6 | 1.6 | 0.00 | 0.00 | 0.00 | 92 | 1016.1 |
| 20260906124335 | 25 | 85 | 3.2 | 3.2 | 0.00 | 0.00 | 0.00 | 93 | 1016.1 |
| 20260906123834 | 25 | 122 | 0.0 | 1.6 | 0.00 | 0.00 | 0.00 | 94 | 1015.8 |
| 20260906123329 | 25 | 130 | 3.2 | 4.8 | 0.00 | 0.00 | 0.00 | 94 | 1015.8 |
| 20260906122829 | 24 | 150 | 1.6 | 3.2 | 0.00 | 0.00 | 0.00 | 94 | 1015.8 |
| 20260906122324 | 24 | 135 | 1.6 | 3.2 | 0.00 | 0.00 | 0.00 | 95 | 1015.9 |
| 20260906121821 | 24 | 140 | 3.2 | 3.2 | 0.00 | 0.00 | 0.00 | 95 | 1015.5 |
| 20260906121316 | 24 | 97 | 1.6 | 3.2 | 0.00 | 0.00 | 0.00 | 95 | 1015.5 |
| 20260906120813 | 24 | 130 | 1.6 | 1.6 | 0.00 | 0.00 | 0.00 | 95 | 1015.6 |
| 20260906120308 | 24 | 144 | 4.8 | 4.8 | 0.00 | 0.00 | 0.00 | 95 | 1015.5 |
| 20260906115804 | 24 | 93 | 1.6 | 3.2 | 0.00 | 0.00 | 0.00 | 95 | 1015.5 |
| 20260906115259 | 24 | 131 | 0.0 | 1.6 | 0.00 | 0.00 | 0.00 | 94 | 1015.4 |
| 20260906114759 | 24 | 104 | 3.2 | 4.8 | 0.00 | 0.00 | 0.00 | 94 | 1015.3 |
| 20260906114254 | 24 | 67 | 4.8 | 4.8 | 0.00 | 0.00 | 0.00 | 94 | 1015.2 |
| 20260906113749 | 24 | 122 | 3.2 | 3.2 | 0.00 | 0.00 | 0.00 | 94 | 1015.2 |
| 20260906113249 | 24 | 133 | 6.4 | 9.7 | 0.00 | 0.00 | 0.00 | 94 | 1015.1 |
| 20260906112748 | 24 | 117 | 4.8 | 4.8 | 0.00 | 0.00 | 0.00 | 94 | 1015.3 |
| 20260906112245 | 24 | 90 | 3.2 | 3.2 | 0.00 | 0.00 | 0.00 | 94 | 1015.1 |
| 20260906111744 | 24 | 112 | 1.6 | 1.6 | 0.00 | 0.00 | 0.00 | 94 | 1015.1 |
| 20260906111239 | 24 | 80 | 3.2 | 3.2 | 0.00 | 0.00 | 0.00 | 94 | 1015.1 |
| 20260906110734 | 24 | 135 | 0.0 | 1.6 | 0.00 | 0.00 | 0.00 | 94 | 1015.0 |
| 20260906110230 | 24 | 104 | 3.2 | 3.2 | 0.00 | 0.00 | 0.00 | 94 | 1015.1 |
| 20260906105728 | 24 | 136 | 1.6 | 3.2 | 0.00 | 0.00 | 0.00 | 94 | 1015.1 |
| 20260906105225 | 24 | 125 | 1.6 | 1.6 | 0.00 | 0.00 | 0.00 | 93 | 1015.0 |
| 20260906104725 | 24 | 131 | 4.8 | 6.4 | 0.00 | 0.00 | 0.00 | 93 | 1015.0 |
| 20260906104224 | 24 | 134 | 1.6 | 1.6 | 0.00 | 0.00 | 0.00 | 93 | 1015.1 |
| 20260906103721 | 24 | 99 | 3.2 | 4.8 | 0.00 | 0.00 | 0.00 | 93 | 1015.4 |
| 20260906103216 | 24 | 138 | 0.0 | 1.6 | 0.00 | 0.00 | 0.00 | 93 | 1015.1 |
| 20260906102712 | 24 | 125 | 1.6 | 1.6 | 0.00 | 0.00 | 0.00 | 93 | 1015.1 |
| 20260906102212 | 24 | 131 | 0.0 | 1.6 | 0.00 | 0.00 | 0.00 | 92 | 1015.0 |
| 20260906101712 | 24 | 109 | 0.0 | 1.6 | 0.00 | 0.00 | 0.00 | 92 | 1015.0 |
| 20260906101207 | 24 | 131 | 0.0 | 1.6 | 0.00 | 0.00 | 0.00 | 92 | 1014.7 |
| 20260906100703 | 24 | 130 | 0.0 | 1.6 | 0.00 | 0.00 | 0.00 | 92 | 1014.6 |
| 20260906100202 | 24 | 106 | 1.6 | 3.2 | 0.00 | 0.00 | 0.00 | 92 | 1015.0 |
| 20260906095657 | 24 | 127 | 0.0 | 0.0 | 0.00 | 0.00 | 0.00 | 92 | 1014.9 |
| 20260906095152 | 24 | 126 | 0.0 | 0.0 | 0.00 | 0.00 | 0.00 | 91 | 1014.9 |
| 20260906094651 | 24 | 134 | 0.0 | 0.0 | 0.00 | 0.00 | 0.00 | 91 | 1014.7 |
| 20260906094147 | 24 | 134 | 0.0 | 0.0 | 0.00 | 0.00 | 0.00 | 91 | 1014.9 |
| 20260906093643 | 24 | 130 | 0.0 | 0.0 | 0.00 | 0.00 | 0.00 | 90 | 1014.5 |
| 20260906093138 | 25 | 135 | 0.0 | 0.0 | 0.00 | 0.00 | 0.00 | 90 | 1014.6 |
| 20260906092633 | 25 | 134 | 0.0 | 0.0 | 0.00 | 0.00 | 0.00 | 89 | 1014.3 |
| 20260906092132 | 25 | 126 | 0.0 | 1.6 | 0.00 | 0.00 | 0.00 | 89 | 1014.5 |
| 20260906091630 | 25 | 129 | 0.0 | 1.6 | 0.00 | 0.00 | 0.00 | 89 | 1014.4 |
| 20260906091126 | 25 | 89 | 3.2 | 3.2 | 0.00 | 0.00 | 0.00 | 89 | 1014.3 |
| 20260906090621 | 25 | 129 | 1.6 | 1.6 | 0.00 | 0.00 | 0.00 | 88 | 1014.4 |
| 20260906090120 | 25 | 87 | 1.6 | 3.2 | 0.00 | 0.00 | 0.00 | 88 | 1014.3 |
| 20260906085619 | 25 | 125 | 0.0 | 0.0 | 0.00 | 0.00 | 0.00 | 88 | 1014.2 |
| 20260906085114 | 25 | 129 | 3.2 | 3.2 | 0.00 | 0.00 | 0.00 | 87 | 1014.4 |
| 20260906084608 | 25 | 84 | 1.6 | 1.6 | 0.00 | 0.00 | 0.00 | 87 | 1014.1 |
| 20260906084107 | 25 | 113 | 3.2 | 3.2 | 0.00 | 0.00 | 0.00 | 87 | 1014.2 |
| 20260906083603 | 25 | 109 | 1.6 | 3.2 | 0.00 | 0.00 | 0.00 | 86 | 1014.0 |
| 20260906083103 | 25 | 86 | 3.2 | 4.8 | 0.00 | 0.00 | 0.00 | 86 | 1014.2 |
| 20260906082558 | 25 | 121 | 1.6 | 3.2 | 0.00 | 0.00 | 0.00 | 86 | 1014.0 |
| 20260906082054 | 25 | 140 | 0.0 | 1.6 | 0.00 | 0.00 | 0.00 | 86 | 1014.1 |
| 20260906081549 | 25 | 117 | 3.2 | 3.2 | 0.00 | 0.00 | 0.00 | 86 | 1013.9 |
| 20260906081045 | 25 | 133 | 1.6 | 1.6 | 0.00 | 0.00 | 0.00 | 86 | 1013.9 |
| 20260906080542 | 25 | 93 | 3.2 | 3.2 | 0.00 | 0.00 | 0.00 | 86 | 1014.1 |
| 20260906080038 | 25 | 110 | 4.8 | 4.8 | 0.00 | 0.00 | 0.00 | 86 | 1013.8 |
| 20260906075537 | 25 | 143 | 0.0 | 0.0 | 0.00 | 0.00 | 0.00 | 86 | 1013.9 |
| 20260906075032 | 25 | 123 | 1.6 | 1.6 | 0.00 | 0.00 | 0.00 | 85 | 1014.0 |
| 20260906074527 | 25 | 119 | 0.0 | 1.6 | 0.00 | 0.00 | 0.00 | 86 | 1013.9 |
| 20260906074025 | 25 | 130 | 1.6 | 1.6 | 0.00 | 0.00 | 0.00 | 86 | 1013.7 |
| 20260906073520 | 25 | 140 | 0.0 | 1.6 | 0.00 | 0.00 | 0.00 | 85 | 1013.8 |
| 20260906073016 | 25 | 125 | 1.6 | 3.2 | 0.00 | 0.00 | 0.00 | 86 | 1014.0 |
| 20260906072511 | 25 | 121 | 0.0 | 0.0 | 0.00 | 0.00 | 0.00 | 85 | 1013.9 |
| 20260906072008 | 25 | 124 | 0.0 | 0.0 | 0.00 | 0.00 | 0.00 | 85 | 1013.9 |
| 20260906071503 | 25 | 128 | 0.0 | 0.0 | 0.00 | 0.00 | 0.00 | 85 | 1014.0 |
| 20260906070958 | 25 | 127 | 0.0 | 0.0 | 0.00 | 0.00 | 0.00 | 85 | 1014.2 |
| 20260906070454 | 25 | 105 | 0.0 | 1.6 | 0.00 | 0.00 | 0.00 | 86 | 1014.1 |
| 20260906065950 | 25 | 133 | 0.0 | 0.0 | 0.00 | 0.00 | 0.00 | 86 | 1014.3 |
| 20260906065449 | 24 | 134 | 0.0 | 0.0 | 0.00 | 0.00 | 0.00 | 86 | 1014.4 |
| 20260906064945 | 24 | 136 | 0.0 | 0.0 | 0.00 | 0.00 | 0.00 | 85 | 1014.4 |
| 20260906064442 | 25 | 135 | 0.0 | 0.0 | 0.00 | 0.00 | 0.00 | 84 | 1014.6 |
| 20260906063942 | 25 | 135 | 0.0 | 0.0 | 0.00 | 0.00 | 0.00 | 83 | 1014.5 |
| 20260906063438 | 25 | 136 | 0.0 | 0.0 | 0.00 | 0.00 | 0.00 | 83 | 1014.6 |
| 20260906062937 | 25 | 135 | 0.0 | 0.0 | 0.00 | 0.00 | 0.00 | 83 | 1014.5 |
| 20260906062433 | 25 | 135 | 0.0 | 0.0 | 0.00 | 0.00 | 0.00 | 83 | 1014.4 |
| 20260906061927 | 25 | 144 | 0.0 | 0.0 | 0.00 | 0.00 | 0.00 | 83 | 1014.5 |
| 20260906061423 | 25 | 144 | 0.0 | 0.0 | 0.00 | 0.00 | 0.00 | 82 | 1014.4 |
| 20260906060918 | 25 | 144 | 0.0 | 0.0 | 0.00 | 0.00 | 0.00 | 82 | 1014.5 |
| 20260906060415 | 25 | 144 | 0.0 | 0.0 | 0.00 | 0.00 | 0.00 | 81 | 1014.6 |
| 20260906055911 | 25 | 144 | 0.0 | 0.0 | 0.00 | 0.00 | 0.00 | 81 | 1014.4 |
| 20260906055407 | 25 | 144 | 0.0 | 0.0 | 0.00 | 0.00 | 0.00 | 80 | 1014.5 |
| 20260906054902 | 25 | 144 | 0.0 | 0.0 | 0.00 | 0.00 | 0.00 | 80 | 1014.5 |
| 20260906054356 | 25 | 144 | 0.0 | 0.0 | 0.00 | 0.00 | 0.00 | 79 | 1014.5 |
| 20260906053853 | 25 | 144 | 0.0 | 0.0 | 0.00 | 0.00 | 0.00 | 79 | 1014.5 |
| 20260906053348 | 25 | 144 | 0.0 | 0.0 | 0.00 | 0.00 | 0.00 | 79 | 1014.5 |
| 20260906052844 | 25 | 144 | 0.0 | 0.0 | 0.00 | 0.00 | 0.00 | 79 | 1014.6 |
| 20260906052340 | 25 | 144 | 0.0 | 0.0 | 0.00 | 0.00 | 0.00 | 78 | 1014.4 |
| 20260906051837 | 26 | 144 | 0.0 | 0.0 | 0.00 | 0.00 | 0.00 | 78 | 1014.6 |
| 20260906051336 | 26 | 144 | 0.0 | 0.0 | 0.00 | 0.00 | 0.00 | 77 | 1014.4 |
| 20260906050832 | 26 | 144 | 0.0 | 0.0 | 0.00 | 0.00 | 0.00 | 76 | 1014.6 |
| 20260906050327 | 26 | 144 | 0.0 | 0.0 | 0.00 | 0.00 | 0.00 | 74 | 1014.3 |
| 20260906045826 | 27 | 144 | 0.0 | 0.0 | 0.00 | 0.00 | 0.00 | 72 | 1014.3 |
| 20260906045320 | 27 | 123 | 0.0 | 1.6 | 0.00 | 0.00 | 0.00 | 72 | 1014.3 |
| 20260906044817 | 27 | 142 | 0.0 | 0.0 | 0.00 | 0.00 | 0.00 | 72 | 1014.2 |
| 20260906044317 | 27 | 135 | 1.6 | 3.2 | 0.00 | 0.00 | 0.00 | 72 | 1014.4 |
| 20260906043812 | 27 | 148 | 1.6 | 1.6 | 0.00 | 0.00 | 0.00 | 73 | 1014.2 |
| 20260906043309 | 26 | 128 | 0.0 | 1.6 | 0.00 | 0.00 | 0.00 | 73 | 1014.2 |
| 20260906042808 | 26 | 128 | 0.0 | 0.0 | 0.00 | 0.00 | 0.00 | 73 | 1014.0 |
| 20260906042308 | 26 | 129 | 0.0 | 0.0 | 0.00 | 0.00 | 0.00 | 74 | 1014.1 |
| 20260906041803 | 26 | 129 | 0.0 | 0.0 | 0.00 | 0.00 | 0.00 | 74 | 1014.1 |
| 20260906041258 | 26 | 129 | 0.0 | 0.0 | 0.00 | 0.00 | 0.00 | 74 | 1013.9 |
| 20260906040754 | 26 | 129 | 0.0 | 0.0 | 0.00 | 0.00 | 0.00 | 75 | 1014.2 |
| 20260906040249 | 26 | 129 | 0.0 | 0.0 | 0.00 | 0.00 | 0.00 | 75 | 1014.1 |
| 20260906035744 | 26 | 129 | 0.0 | 0.0 | 0.00 | 0.00 | 0.00 | 76 | 1014.0 |
| 20260906035240 | 26 | 129 | 0.0 | 0.0 | 0.00 | 0.00 | 0.00 | 77 | 1013.9 |
| 20260906034739 | 25 | 129 | 0.0 | 0.0 | 0.00 | 0.00 | 0.00 | 77 | 1014.0 |
| 20260906034234 | 26 | 129 | 0.0 | 0.0 | 0.00 | 0.00 | 0.00 | 77 | 1014.0 |
| 20260906033730 | 26 | 129 | 0.0 | 0.0 | 0.00 | 0.00 | 0.00 | 76 | 1013.8 |
| 20260906033230 | 26 | 129 | 0.0 | 0.0 | 0.00 | 0.00 | 0.00 | 75 | 1013.9 |
| 20260906032727 | 26 | 129 | 0.0 | 0.0 | 0.00 | 0.00 | 0.00 | 74 | 1013.7 |
| 20260906032226 | 27 | 129 | 0.0 | 0.0 | 0.00 | 0.00 | 0.00 | 73 | 1013.7 |
| 20260906031722 | 27 | 129 | 0.0 | 0.0 | 0.00 | 0.00 | 0.00 | 72 | 1013.5 |
| 20260906031217 | 27 | 129 | 0.0 | 0.0 | 0.00 | 0.00 | 0.00 | 71 | 1013.4 |
| 20260906030717 | 27 | 129 | 0.0 | 0.0 | 0.00 | 0.00 | 0.00 | 70 | 1013.3 |
| 20260906030212 | 28 | 129 | 0.0 | 0.0 | 0.00 | 0.00 | 0.00 | 68 | 1013.3 |
| 20260906025711 | 28 | 129 | 0.0 | 0.0 | 0.00 | 0.00 | 0.00 | 67 | 1013.4 |
| 20260906025206 | 28 | 129 | 0.0 | 0.0 | 0.00 | 0.00 | 0.00 | 67 | 1013.2 |
| 20260906024705 | 28 | 129 | 0.0 | 0.0 | 0.00 | 0.00 | 0.00 | 67 | 1013.3 |
| 20260906024205 | 28 | 129 | 0.0 | 0.0 | 0.00 | 0.00 | 0.00 | 66 | 1013.2 |
| 20260906023701 | 28 | 129 | 0.0 | 0.0 | 0.00 | 0.00 | 0.00 | 66 | 1013.3 |
| 20260906023201 | 28 | 129 | 0.0 | 0.0 | 0.00 | 0.00 | 0.00 | 65 | 1013.1 |
| 20260906022655 | 29 | 129 | 0.0 | 0.0 | 0.00 | 0.00 | 0.00 | 65 | 1013.1 |
| 20260906022151 | 29 | 129 | 0.0 | 0.0 | 0.00 | 0.00 | 0.00 | 65 | 1013.0 |
| 20260906021648 | 28 | 129 | 1.6 | 1.6 | 0.00 | 0.00 | 0.00 | 65 | 1012.8 |
| 20260906021146 | 28 | 129 | 0.0 | 1.6 | 0.00 | 0.00 | 0.00 | 66 | 1012.8 |
| 20260906020641 | 28 | 129 | 0.0 | 0.0 | 0.00 | 0.00 | 0.00 | 66 | 1012.7 |
| 20260906020136 | 29 | 129 | 0.0 | 0.0 | 0.00 | 0.00 | 0.00 | 65 | 1012.7 |
| 20260906015636 | 29 | 129 | 0.0 | 0.0 | 0.00 | 0.00 | 0.00 | 65 | 1012.8 |
| 20260906015135 | 29 | 130 | 0.0 | 0.0 | 0.00 | 0.00 | 0.00 | 65 | 1012.6 |
| 20260906014635 | 29 | 130 | 0.0 | 0.0 | 0.00 | 0.00 | 0.00 | 65 | 1012.6 |
| 20260906014131 | 29 | 130 | 1.6 | 1.6 | 0.00 | 0.00 | 0.00 | 65 | 1012.6 |
| 20260906013626 | 29 | 130 | 0.0 | 0.0 | 0.00 | 0.00 | 0.00 | 66 | 1012.6 |
| 20260906013121 | 29 | 130 | 0.0 | 0.0 | 0.00 | 0.00 | 0.00 | 66 | 1012.4 |
| 20260906012616 | 29 | 130 | 0.0 | 0.0 | 0.00 | 0.00 | 0.00 | 66 | 1012.6 |
| 20260906012116 | 29 | 130 | 0.0 | 0.0 | 0.00 | 0.00 | 0.00 | 66 | 1012.5 |
| 20260906011613 | 28 | 130 | 0.0 | 0.0 | 0.00 | 0.00 | 0.00 | 66 | 1012.4 |
| 20260906011113 | 28 | 130 | 0.0 | 0.0 | 0.00 | 0.00 | 0.00 | 67 | 1012.3 |
| 20260906010608 | 29 | 130 | 0.0 | 0.0 | 0.00 | 0.00 | 0.00 | 66 | 1012.6 |
| 20260906010104 | 30 | 130 | 0.0 | 0.0 | 0.00 | 0.00 | 0.00 | 64 | 1012.2 |
| 20260906005603 | 30 | 130 | 0.0 | 0.0 | 0.00 | 0.00 | 0.00 | 63 | 1012.2 |
| 20260906005103 | 30 | 130 | 0.0 | 0.0 | 0.00 | 0.00 | 0.00 | 64 | 1012.3 |
| 20260906004602 | 30 | 130 | 0.0 | 0.0 | 0.00 | 0.00 | 0.00 | 61 | 1012.2 |
| 20260906004057 | 31 | 129 | 0.0 | 1.6 | 0.00 | 0.00 | 0.00 | 57 | 1012.2 |
| 20260906003552 | 32 | 143 | 0.0 | 0.0 | 0.00 | 0.00 | 0.00 | 56 | 1012.1 |
| 20260906003049 | 32 | 143 | 0.0 | 0.0 | 0.00 | 0.00 | 0.00 | 54 | 1012.0 |
| 20260906002548 | 33 | 143 | 0.0 | 0.0 | 0.00 | 0.00 | 0.00 | 51 | 1012.0 |
| 20260906002043 | 34 | 143 | 0.0 | 0.0 | 0.00 | 0.00 | 0.00 | 49 | 1012.0 |
| 20260906001539 | 35 | 143 | 0.0 | 0.0 | 0.00 | 0.00 | 0.00 | 47 | 1012.0 |
| 20260906001039 | 35 | 143 | 0.0 | 0.0 | 0.00 | 0.00 | 0.00 | 45 | 1012.0 |
| 20260906000535 | 35 | 143 | 0.0 | 0.0 | 0.00 | 0.00 | 0.00 | 43 | 1012.1 |
| 20260906000030 | 35 | 143 | 0.0 | 0.0 | 0.00 | 0.00 | 0.00 | 42 | 1012.1 |
| 20260905235529 | 35 | 143 | 0.0 | 0.0 | 0.00 | 0.00 | 0.00 | 42 | 1012.2 |
| 20260905235025 | 36 | 144 | 0.0 | 0.0 | 0.00 | 0.00 | 0.00 | 42 | 1012.1 |
| 20260905234521 | 36 | 146 | 0.0 | 0.0 | 0.00 | 0.00 | 0.00 | 41 | 1011.9 |
| 20260905234021 | 36 | 148 | 0.0 | 1.6 | 0.00 | 0.00 | 0.00 | 41 | 1012.1 |
| 20260905233515 | 36 | 159 | 0.0 | 0.0 | 0.00 | 0.00 | 0.00 | 41 | 1012.4 |
| 20260905233015 | 36 | 140 | 1.6 | 1.6 | 0.00 | 0.00 | 0.00 | 40 | 1012.2 |
| 20260905232510 | 37 | 137 | 3.2 | 3.2 | 0.00 | 0.00 | 0.00 | 39 | 1012.1 |
| 20260905232006 | 37 | 144 | 0.0 | 0.0 | 0.00 | 0.00 | 0.00 | 37 | 1011.9 |
| 20260905231501 | 37 | 160 | 0.0 | 0.0 | 0.00 | 0.00 | 0.00 | 38 | 1012.0 |
| 20260905230958 | 37 | 195 | 0.0 | 1.6 | 0.00 | 0.00 | 0.00 | 38 | 1012.0 |
| 20260905230456 | 37 | 145 | 1.6 | 1.6 | 0.00 | 0.00 | 0.00 | 36 | 1011.9 |
| 20260905225954 | 37 | 149 | 0.0 | 1.6 | 0.00 | 0.00 | 0.00 | 38 | 1011.8 |
| 20260905225449 | 37 | 166 | 0.0 | 0.0 | 0.00 | 0.00 | 0.00 | 37 | 1011.9 |
| 20260905224945 | 37 | 258 | 1.6 | 1.6 | 0.00 | 0.00 | 0.00 | 37 | 1011.8 |
| 20260905224440 | 37 | 171 | 0.0 | 0.0 | 0.00 | 0.00 | 0.00 | 37 | 1011.9 |
| 20260905223939 | 37 | 180 | 0.0 | 0.0 | 0.00 | 0.00 | 0.00 | 38 | 1011.7 |
| 20260905223437 | 36 | 75 | 3.2 | 3.2 | 0.00 | 0.00 | 0.00 | 38 | 1011.7 |
| 20260905222932 | 36 | 79 | 3.2 | 3.2 | 0.00 | 0.00 | 0.00 | 41 | 1011.7 |
| 20260905222432 | 37 | 114 | 3.2 | 4.8 | 0.00 | 0.00 | 0.00 | 38 | 1011.7 |
| 20260905221927 | 37 | 148 | 1.6 | 3.2 | 0.00 | 0.00 | 0.00 | 37 | 1011.8 |
| 20260905221424 | 37 | 70 | 3.2 | 4.8 | 0.00 | 0.00 | 0.00 | 37 | 1011.9 |
| 20260905220920 | 37 | 64 | 4.8 | 4.8 | 0.00 | 0.00 | 0.00 | 37 | 1011.9 |
| 20260905220416 | 37 | 54 | 3.2 | 3.2 | 0.00 | 0.00 | 0.00 | 36 | 1011.9 |
| 20260905215915 | 37 | 155 | 0.0 | 1.6 | 0.00 | 0.00 | 0.00 | 36 | 1012.0 |
| 20260905215410 | 37 | 52 | 6.4 | 9.7 | 0.00 | 0.00 | 0.00 | 36 | 1012.0 |
| 20260905214907 | 37 | 66 | 3.2 | 3.2 | 0.00 | 0.00 | 0.00 | 37 | 1011.9 |
| 20260905214402 | 37 | 12 | 3.2 | 3.2 | 0.00 | 0.00 | 0.00 | 37 | 1011.9 |
| 20260905213857 | 37 | 338 | 3.2 | 4.8 | 0.00 | 0.00 | 0.00 | 37 | 1011.9 |
| 20260905213353 | 37 | 80 | 6.4 | 9.7 | 0.00 | 0.00 | 0.00 | 37 | 1011.9 |
| 20260905212853 | 38 | 145 | 3.2 | 4.8 | 0.00 | 0.00 | 0.00 | 35 | 1012.2 |
| 20260905212348 | 38 | 60 | 3.2 | 3.2 | 0.00 | 0.00 | 0.00 | 36 | 1012.4 |
| 20260905211847 | 38 | 100 | 1.6 | 1.6 | 0.00 | 0.00 | 0.00 | 36 | 1012.2 |
| 20260905211343 | 38 | 342 | 3.2 | 6.4 | 0.00 | 0.00 | 0.00 | 35 | 1012.3 |
| 20260905210840 | 38 | 308 | 4.8 | 6.4 | 0.00 | 0.00 | 0.00 | 36 | 1012.4 |
| 20260905210340 | 38 | 209 | 1.6 | 3.2 | 0.00 | 0.00 | 0.00 | 36 | 1012.7 |
| 20260905205838 | 38 | 20 | 3.2 | 4.8 | 0.00 | 0.00 | 0.00 | 36 | 1012.6 |
| 20260905205333 | 38 | 9 | 4.8 | 6.4 | 0.00 | 0.00 | 0.00 | 36 | 1012.7 |
| 20260905204832 | 38 | 344 | 6.4 | 6.4 | 0.00 | 0.00 | 0.00 | 33 | 1012.8 |
| 20260905204329 | 38 | 135 | 0.0 | 1.6 | 0.00 | 0.00 | 0.00 | 36 | 1012.7 |
| 20260905203827 | 38 | 74 | 6.4 | 9.7 | 0.00 | 0.00 | 0.00 | 35 | 1012.8 |
| 20260905203323 | 38 | 330 | 8.0 | 9.7 | 0.00 | 0.00 | 0.00 | 35 | 1013.1 |
| 20260905202819 | 38 | 42 | 6.4 | 9.7 | 0.00 | 0.00 | 0.00 | 36 | 1012.9 |
| 20260905202314 | 38 | 68 | 8.0 | 11.3 | 0.00 | 0.00 | 0.00 | 36 | 1013.2 |
| 20260905201809 | 38 | 19 | 3.2 | 4.8 | 0.00 | 0.00 | 0.00 | 37 | 1012.9 |
| 20260905201305 | 38 | 296 | 8.0 | 14.5 | 0.00 | 0.00 | 0.00 | 36 | 1013.0 |
| 20260905200805 | 38 | 280 | 1.6 | 3.2 | 0.00 | 0.00 | 0.00 | 38 | 1013.0 |
| 20260905200301 | 38 | 297 | 4.8 | 4.8 | 0.00 | 0.00 | 0.00 | 37 | 1013.1 |
| 20260905195758 | 38 | 301 | 4.8 | 4.8 | 0.00 | 0.00 | 0.00 | 37 | 1013.2 |
| 20260905195253 | 38 | 13 | 3.2 | 6.4 | 0.00 | 0.00 | 0.00 | 37 | 1013.1 |
| 20260905194750 | 38 | 170 | 0.0 | 1.6 | 0.00 | 0.00 | 0.00 | 36 | 1013.4 |
| 20260905194249 | 38 | 65 | 4.8 | 6.4 | 0.00 | 0.00 | 0.00 | 37 | 1013.3 |
| 20260905193748 | 38 | 86 | 4.8 | 4.8 | 0.00 | 0.00 | 0.00 | 39 | 1013.3 |
| 20260905193243 | 37 | 6 | 3.2 | 4.8 | 0.00 | 0.00 | 0.00 | 38 | 1013.5 |
| 20260905192739 | 37 | 37 | 4.8 | 4.8 | 0.00 | 0.00 | 0.00 | 38 | 1013.3 |
| 20260905192235 | 38 | 307 | 8.0 | 11.3 | 0.00 | 0.00 | 0.00 | 37 | 1013.4 |
| 20260905191734 | 37 | 21 | 4.8 | 6.4 | 0.00 | 0.00 | 0.00 | 38 | 1013.5 |
| 20260905191232 | 37 | 150 | 1.6 | 3.2 | 0.00 | 0.00 | 0.00 | 39 | 1013.5 |
| 20260905190732 | 37 | 133 | 3.2 | 3.2 | 0.00 | 0.00 | 0.00 | 38 | 1013.5 |
| 20260905190231 | 37 | 33 | 6.4 | 9.7 | 0.00 | 0.00 | 0.00 | 37 | 1013.9 |
| 20260905185730 | 37 | 245 | 4.8 | 6.4 | 0.00 | 0.00 | 0.00 | 39 | 1013.8 |
| 20260905185225 | 37 | 232 | 3.2 | 3.2 | 0.00 | 0.00 | 0.00 | 39 | 1013.6 |
| 20260905184719 | 37 | 330 | 1.6 | 4.8 | 0.00 | 0.00 | 0.00 | 38 | 1013.7 |
| 20260905184218 | 37 | 282 | 3.2 | 4.8 | 0.00 | 0.00 | 0.00 | 38 | 1013.9 |
| 20260905183718 | 37 | 36 | 3.2 | 3.2 | 0.00 | 0.00 | 0.00 | 38 | 1014.0 |
| 20260905183213 | 37 | 285 | 8.0 | 12.9 | 0.00 | 0.00 | 0.00 | 39 | 1013.9 |
| 20260905182713 | 37 | 263 | 4.8 | 4.8 | 0.00 | 0.00 | 0.00 | 38 | 1014.1 |
| 20260905182212 | 37 | 203 | 0.0 | 0.0 | 0.00 | 0.00 | 0.00 | 41 | 1014.1 |
| 20260905181708 | 37 | 282 | 6.4 | 9.7 | 0.00 | 0.00 | 0.00 | 38 | 1014.0 |
| 20260905181207 | 37 | 246 | 3.2 | 3.2 | 0.00 | 0.00 | 0.00 | 37 | 1014.0 |
| 20260905180701 | 37 | 141 | 4.8 | 4.8 | 0.00 | 0.00 | 0.00 | 39 | 1014.0 |
| 20260905180157 | 36 | 164 | 4.8 | 4.8 | 0.00 | 0.00 | 0.00 | 39 | 1014.1 |
| 20260905175656 | 37 | 232 | 4.8 | 6.4 | 0.00 | 0.00 | 0.00 | 40 | 1014.2 |
| 20260905175151 | 37 | 172 | 0.0 | 0.0 | 0.00 | 0.00 | 0.00 | 42 | 1014.2 |
| 20260905174647 | 36 | 153 | 3.2 | 3.2 | 0.00 | 0.00 | 0.00 | 39 | 1014.3 |
| 20260905174142 | 37 | 182 | 4.8 | 4.8 | 0.00 | 0.00 | 0.00 | 39 | 1014.4 |
| 20260905173638 | 37 | 222 | 1.6 | 3.2 | 0.00 | 0.00 | 0.00 | 40 | 1014.7 |
| 20260905173134 | 37 | 165 | 1.6 | 1.6 | 0.00 | 0.00 | 0.00 | 41 | 1014.7 |
| 20260905172632 | 37 | 273 | 3.2 | 4.8 | 0.00 | 0.00 | 0.00 | 39 | 1014.9 |
| 20260905172127 | 37 | 278 | 4.8 | 6.4 | 0.00 | 0.00 | 0.00 | 39 | 1014.9 |
| 20260905171624 | 36 | 250 | 3.2 | 4.8 | 0.00 | 0.00 | 0.00 | 39 | 1015.0 |
| 20260905171120 | 36 | 219 | 1.6 | 3.2 | 0.00 | 0.00 | 0.00 | 39 | 1015.1 |
| 20260905170616 | 36 | 269 | 3.2 | 4.8 | 0.00 | 0.00 | 0.00 | 39 | 1015.2 |
| 20260905170112 | 36 | 33 | 6.4 | 11.3 | 0.00 | 0.00 | 0.00 | 40 | 1015.4 |
| 20260905165611 | 36 | 36 | 1.6 | 3.2 | 0.00 | 0.00 | 0.00 | 40 | 1015.4 |
| 20260905165107 | 36 | 200 | 1.6 | 3.2 | 0.00 | 0.00 | 0.00 | 41 | 1015.3 |